Regional Weather Roundup
Issued by NWS Wakefield, VA

Home | Current Version | Previous Version | Graphics & Text | Print | Product List | Glossary On
Versions: 1 2 3 4 5 6 7 8 9 10 11 12 13 14 15 16 17 18 19 20 21 22 23 24 25 26 27 28 29 30 31 32 33 34 35 36 37 38 39 40 41 42 43 44 45 46 47 48 49 50
000
ASUS41 KAKQ 140615
RWRAKQ

REGIONAL WEATHER ROUNDUP
NATIONAL WEATHER SERVICE WAKEFIELD VA
100 AM EST THU DEC 14 2017

Note: "fair" indicates few or no clouds below 12,000 feet with no
significant weather and/or obstructions to visibility. * = Denotes
station may not report precipitation (e.g., rain,snow,etc.),
thunder or fog.

VAZ042-051-052>054-056-140700-
NORTHERN VIRGINIA

CITY           SKY/WX    TMP DP  RH WIND       PRES   REMARKS
WASH NATIONAL  CLOUDY    37  15  40 S12       29.57F
DULLES         CLOUDY    33  13  43 S9        29.54F
FORT BELVOIR   CLOUDY    35  14  42 S6        29.56F
QUANTICO       PTCLDY    37  21  52 SW13      29.58F
FREDERICKSBRG* PTCLDY    36  18  48 S10       29.56F
STAFFORD*      CLOUDY    34  14  44 S6        29.60F
WARRENTON      PTCLDY    35  10  36 S6        29.53F
CULPEPER*      CLEAR     32  12  43 S5        29.55F
MANASSAS*      PTCLDY    30  15  53 S5        29.55F
LEESBURG*      CLOUDY    34  18  51 S6        29.54F
WINCHESTER     CLOUDY    28  18  64 CALM      29.48F
FRONT ROYAL*   CLOUDY    34  14  44 S3        29.47F
LURAY*         MOCLDY    32  18  55 SW6       29.48F
$$

VAZ048-049-060>072-079>083-140700-
CENTRAL AND SOUTH CENTRAL VIRGINIA

CITY           SKY/WX    TMP DP  RH WIND       PRES   REMARKS
RICHMOND       PTCLDY    38  18  44 S15       29.61F
CHESTERFIELD*  NOT AVBL
PETERSBURG*    CLEAR     36  14  41 S3        29.64F
HANOVER        PTCLDY    36  15  42 S13       29.61F
TAPPAHANNOCK*  CLEAR     37  17  45 S9        29.61F
QUINTON*       FAIR      37  17  43 S9G20     29.63F
CHARLOTTSVILLE CLEAR     32  15  49 S9        29.53F
GORDONSVILLE*  CLEAR     29  15  55 SW6       29.54F
ORANGE*        CLEAR     32  14  47 CALM      29.54F
LOUISA*        PTCLDY    33  14  45 S7        29.59F
BUMPASS*       FAIR      33  13  42 S6        29.56F
FARMVILLE*     MOCLDY    38  20  48 S9        29.58F
CREWE*         FAIR      37  18  46 S8G17     29.62F
FORT PICKETT*  NOT AVBL
CHASE CITY*    FAIR      35  18  48 SW6       29.64F
CLARKSVILLE*   FAIR      36  19  51 SW12G17   29.66S
SOUTH HILL*    CLEAR     34  19  54 SW8       29.71F
LAWRENCEVILLE* FAIR      35  17  46 SW7       29.66F
EMPORIA*       CLEAR     34  19  55 S6        29.70S
$$

VAZ088>098-140700-
SOUTHEAST VIRGINIA

CITY           SKY/WX    TMP DP  RH WIND       PRES   REMARKS
NORFOLK        CLEAR     38  18  44 S16       29.68F
VIRGINIA BEACH CLEAR     37  18  46 S10       29.69F
NORFOLK NAVAL  PTCLDY    39  18  42 S13G25    29.69F
WEST POINT*    PTCLDY   N/A N/A N/A S13G23    29.65F
SALUDA*        CLOUDY    37  18  45 S14       29.63F
NEWPORT NEWS   MOCLDY    37  19  48 S17G25    29.66F
LANGLEY AFB    CLEAR     37  19  47 S16G23    29.66F
FORT EUSTIS    MOCLDY    38  20  47 S10G17    29.64F
WILLIAMSBURG*  PTCLDY    39  19  45 S8G18     29.67F
HR EXEC AP*    FAIR      36  19  50 S10       29.70F
FRANKLIN*      CLEAR     37  18  47 S9        29.70F
US460-WAKEFLD  PTCLDY    36  18  48 SW7       29.67F
$$

VAZ020-022-025-037-045-140700-
WEST CENTRAL AND SOUTHWEST VIRGINIA

CITY           SKY/WX    TMP DP  RH WIND       PRES   REMARKS
STAUNTON*      CLOUDY    35  14  43 S8        29.50F
WAYNESBORO*    CLOUDY    36  14  41 SW5       29.49F
HOT SPRINGS VA CLOUDY    32  11  42 W20G32    29.42F WCI  20
LYNCHBURG      CLOUDY    34  16  47 S8        29.56F
DANVILLE       CLOUDY    35  19  52 SW6       29.65F
SOUTH BOSTON*  MOCLDY    38  16  41 SW8       29.65F
MARTINSVILLE   CLOUDY    33  15  47 CALM      29.65F
ROANOKE        CLOUDY    42  15  33 SW5       29.56F
BLACKSBURG     CLOUDY    39  19  45 W10G20    29.57F
DUBLIN*        CLOUDY    40  18  41 SW8G21    29.58F
MARION*        CLOUDY    37  12  35 W22G40    29.61S
HILLSVILLE*    CLOUDY    40  20  44 W5        29.56F
RICHLANDS*     CLOUDY    36  15  42 W12G23    29.62S
WISE*          CLOUDY    36  19  51 SW15G22   29.64S
ABINGDON*      CLOUDY    40  17  39 W10       29.68S
$$

MDZ021>025-VAZ099-100-140700-
SOUTHERN MARYLAND AND THE DELMARVA PENINSULA

CITY           SKY/WX    TMP DP  RH WIND       PRES   REMARKS
PATUXENT RIVER CLOUDY    38  18  44 SW12G21   29.60F
BAY BRIDGE APT CLOUDY    39  18  41 S14G24    29.57F
LEONARDTOWN    CLOUDY    37  19  48 SW12G20   29.60F
DOVER          CLOUDY    29  29 100 SE10      29.60F WCI  19
GEORGETOWN     CLOUDY    32  27  81 S10       29.62F WCI  24
EASTON         CLOUDY    39  19  44 SW15G21   29.62F
CAMBRIDGE      CLOUDY    39  21  48 S12G26    29.60F
SALISBURY      MOCLDY    33  26  75 S10       29.62F WCI  25
OCEAN CITY     MOCLDY    35  29  78 SW14      29.65F
WALLOPS ISLAND MOCLDY    36  26  67 S16G23    29.65F
ACCOMACK*      MOCLDY    37  21  52 S12G18    29.65F
$$

NCZ012>017-030>032-140700-
NORTH CENTRAL AND EASTERN NORTH CAROLINA

CITY           SKY/WX    TMP DP  RH WIND       PRES   REMARKS
ROANOKE RAPIDS FAIR      36  21  55 S12       29.70F
RALEIGH        PTCLDY    36  19  50 SW12      29.72F
ELIZABETH CITY MOCLDY    42  25  50 S17G23    29.75F
AHOSKIE*       CLEAR     36  19  50 S7        29.71F
EDENTON*       MOCLDY    42  25  51 SW10G16   29.76F
CURRITUCK*     CLOUDY    41  24  52 S10G16    29.75F
KILL DEVIL HLS CLOUDY    40  26  59 CALM      29.77F
MANTEO         CLOUDY    40  28  62 SW10      29.79F
CAPE HATTERAS  MOCLDY    53  41  63 SW21G31   29.78F
TARBORO*       NOT AVBL
GOLDSBORO      CLEAR     40  20  46 SW12      29.75F
WASHINGTON     MOCLDY    41  20  43 SW9       29.77F
GREENVILLE     CLEAR     37  21  52 SW9       29.78F
NEW BERN       CLOUDY    39  27  62 SW10      29.81F
WILMINGTON     CLEAR     43  30  60 SW10      29.83F
$$

VAZ048-140700-
ELSEWHERE

CITY           SKY/WX    TMP DP  RH WIND       PRES   REMARKS
HARRISBURG PA  CLOUDY    25  23  92 E6        29.54F
BALTIMORE      CLOUDY    31  21  66 CALM      29.56F
ANNAPOLIS      CLOUDY    37  18  46 S9        29.56F
ANDREWS AFB    CLOUDY    36  14  40 S14       29.54F
PHILADELPHIA   CLOUDY    28  25  88 SE5       29.62F
HENDERSON NC   CLEAR     33  16  48 SW14      29.67F WCI  24
GREENSBORO     CLEAR     35  17  47 SW12      29.65F
ROCKY MOUNT    CLEAR     39  22  50 S13G18    29.73F
$$

VAZ100-140700-
MARINE

STATION/POSITION TIME  TEMP    WIND        PRES    WAVE   SWELL
                       AIR SEA DIR/SP/G            HT/PER HT/PER
                 (UTC) (F)     (DEG/KT/KT) (MB)    (FT/S) (FT/S)
BRANDYWINE LGT   0542          200/ 23/ 27 1003.5F
CAPE MAY NJ      0542          200/ 12/ 17 1003.3F
LEWES DE         0542          180/  8/ 12 1003.4F
15NM E FENWICK I 0550   41 52  200/ 25/ 27 1004.4F   5/ 5
OCEAN-CITY-INLET 0542          230/ 15/ 19 1004.5F
WACHAPREAGUE VA  0542          200/ 13/ 19 1004.7F
THOMAS POINT MD  0600   39 44  200/ 23/ 26   N/A
GOOSES REEF MD   0600   40 46  200/ 17/ 23 1002.1    2/ 3
COVE POINT MD    0542          220/ 19/ 23 1002.7F
SOLOMONS ISLAND  0512   39 46  200/ 17/ 20 1002.4
BISHOPS HEAD MD  0542          200/ 23/ 32 1002.5F
PINEY POINT MD   0536          230/ 21/ 22   N/A
POTOMAC MD       0600   40 46  200/ 19/ 25 1001.5    3/ 3
CAMBRIDGE MD     0542                      1003.0F
LEWISETTA VA     0542          230/ 18/ 22 1002.8F
RAPPAHANNOCK LGT 0542          190/ 31/ 35 1004.2F
STINGRAY PT      0550   40     230/ 19/ 25 1003.7F
YORK RVR RNG VA  0548          210/ 20/ 26 1004.6F
YORKTOWN VA      0548          200/ 11/ 19 1003.9F
JAMESTOWN VA     0600      44  210/ 14/ 19   N/A     1
DOMINION TERM VA 0548          190/ 18/ 20 1004.9F
KIPTOPEKE VA     0536          210/ 25/ 30   N/A
CAPE HENRY VA    0548          180/ 10/ 18   N/A
WILLOUBY STN VA  0542          190/ 22/ 25 1004.4F
S CRANEY ISL VA  0548          200/ 12/ 19 1005.1F
CAPE HENRY BUOY  0530      53                N/A     4/ 4
1ST LANDING BUOY 0600   40 48  200/ 19/ 27 1005.0    2/ 3
CAPE CHARLES BUO 0551      50                N/A     4/ 4
64NM E OF VA BCH 0550   49 59  230/ 25/ 31 1007.0F   5/ 5   2/11
DUCK PIER NC     0548          210/ 14/ 17 1007.5F
44100 DUCK FRF   0545      54                N/A     3/ 4
44056 DUCK FRF   0530      55                N/A
OREGON INLET NC  0536          220/ 11/ 13 1008.4F
HATTERAS NC      0536          230/ 16/ 20 1008.3F
DIAMOND SHLS NC  0550   58 74  220/ 25/ 33 1008.4F   6/ 6   2/10
CAPE LOOKOUT NC  0600          250/ 25/ 27 1009.1F
$$



USA.gov is the U.S. government's official web portal to all federal, state and local government web resources and services.